Location: Longueuil
(45.5369°N, 73.5107°W)
Time: 22:30:08
(UTC-05:00)

ISS - Pass Details

Date: 05 December 2024
Orbit: 411 x 421 km, 51.6° (Epoch: 03 December)

Event Time Altitude Azimuth Distance (km) Brightness Sun altitude
Rises 17:07:27 0° 287° (WNW) 2,370 0.9 -9.6°
Reaches altitude 10° 17:10:07 10° 265° (W) 1,502 0.4 -10.1°
Maximum altitude 17:12:15 16° 226° (SW) 1,189 -0.4 -10.4°
Drops below altitude 10° 17:14:23 10° 186° (S) 1,495 -0.6 -10.8°
Sets 17:17:02 0° 164° (SSE) 2,353 0.1 -11.2°
